Location: Mason Neck State Park
(38.6428°N, 77.1981°W)
Time: 01:23:34
(UTC-04:00)

Daily predictions for brighter satellites

Satellite Brightness Start Highest point End
(mag) Time Altitude Azimuth Time Altitude Azimuth Time Altitude Azimuth
CENTAUR R/B 4.3 02:56:30 28° NNE 02:56:30 28° NNE 02:59:32 10° NNE
SL-16 R/B 4.1 03:33:25 27° N 03:33:25 27° N 03:36:04 10° N
Cosmos 2322 Rocket 3.7 03:58:57 29° N 03:58:57 29° N 04:01:45 10° NNE
SL-16 R/B 3.6 04:04:10 30° N 04:04:10 30° N 04:07:11 10° NNE
COSMOS 2428 4.0 04:09:53 32° ESE 04:10:36 33° ESE 04:15:38 10° NE
Resurs 1-4 Rocket 3.7 04:05:53 10° N 04:08:11 26° N 04:08:11 26° N
CZ-2D R/B 3.6 04:08:01 10° N 04:10:47 29° NNW 04:10:47 29° NNW
Okean O Rocket 3.4 04:12:35 10° NE 04:16:22 27° E 04:16:33 27° E
DELTA 2 R/B (1) 4.2 04:21:58 51° ESE 04:21:58 51° ESE 04:26:14 10° E
FALCON 9 R/B 4.3 04:17:39 50° WSW 04:22:11 69° S 05:08:13 10° ESE
Lacrosse 4 Rocket 3.8 04:26:45 16° ESE 04:26:45 16° ESE 04:27:49 10° SE
Cosmos 2184 Rocket 4.1 04:19:52 10° N 04:26:06 73° E 04:28:01 46° SSE
Cosmos 2360 Rocket 2.4 04:27:51 62° N 04:27:51 62° N 04:32:35 10° NNE
Cosmos 1455 Rocket 4.4 04:23:55 10° N 04:26:43 35° NNE 04:26:43 35° NNE
ADEOS II 3.3 04:30:05 10° NNE 04:35:00 38° E 04:37:45 22° SSE
ADEOS Rocket 3.8 04:33:38 10° N 04:37:11 33° NNW 04:37:11 33° NNW
Cosmos 1340 4.4 04:44:18 27° NNE 04:44:18 27° NNE 04:46:09 10° N
CENTAUR R/B 4.1 04:43:40 20° NW 04:44:31 20° NW 04:49:31 10° NNE
USA 215 3.7 04:41:24 10° ESE 04:47:50 61° NE 04:54:17 10° NW
Cosmos 2208 Rocket 4.2 04:48:51 53° S 04:50:04 73° ESE 04:55:31 10° NNE
SL-08 ROCKET BODY 4.5 04:44:24 10° NNW 04:49:21 53° WNW 04:49:21 53° WNW
Cosmos 1536 Rocket 3.6 04:53:01 76° NNE 04:53:01 76° NNE 04:57:11 10° N
USA 229 DEB 4.3 04:50:45 24° S 04:54:41 50° ESE 05:01:19 10° NE
USA 229 4.4 04:50:50 24° S 04:54:47 50° ESE 05:01:24 10° NE
PAYLOAD B 4.5 04:51:31 10° NNE 04:57:08 69° ESE 05:00:22 26° S
Cosmos 2333 Rocket 3.5 04:53:37 12° SSE 04:58:17 37° ESE 05:03:30 10° NE
Cosmos 2154 Rocket 4.2 04:53:52 10° N 05:00:05 71° E 05:06:15 10° SSE
Cosmos 1743 3.6 04:57:59 10° N 05:01:45 49° E 05:05:28 10° SSE
Cosmos 2322 4.1 05:04:46 43° WNW 05:05:03 43° WNW 05:10:31 10° N
MTI 4.4 05:06:50 56° E 05:06:56 56° ENE 05:10:11 10° N
PSLV R/B 3.8 05:02:43 10° NNE 05:07:03 68° E 05:08:52 34° S
CZ-4B R/B 2.9 05:04:58 10° N 05:08:01 60° N 05:08:01 60° N
EO 1 Del DPAF 3.1 05:13:26 19° SSE 05:16:11 89° ENE 05:20:04 10° NNW
Nadezhda 1 Rocket 4.1 05:16:39 38° SW 05:18:37 51° W 05:24:30 10° N
Cosmos 1610 Rocket 4.5 05:12:31 10° NNW 05:18:41 61° W 05:24:54 10° S
Meteor 1-12 Rocket 4.4 05:14:25 10° NNW 05:19:49 47° W 05:22:23 28° SSW
Cosmos 2181 Rocket 4.3 05:13:42 10° S 05:19:50 68° E 05:26:05 10° NNE
Cosmos 2333 4.2 05:21:50 35° SW 05:24:14 66° WNW 05:29:56 10° NNE
Hubble Space Telescope 3.3 05:24:27 10° S 05:25:21 11° SSE 05:26:22 10° SSE
Cosmos 1570 Rocket 4.3 05:24:16 39° WSW 05:25:33 48° WNW 05:30:37 10° N
Meteor PRIRODA 4.3 05:22:14 10° NNE 05:25:58 57° E 05:29:23 12° S
Cosmos 1844 4.0 05:20:27 10° NNW 05:26:13 69° ENE 05:31:52 10° SSE
Cosmos 468 Rocket 4.3 05:22:13 12° S 05:26:59 65° ESE 05:32:10 10° NNE
Meteor 1-13 Rocket 4.1 05:23:36 19° SSW 05:27:37 74° W 05:33:14 10° N
Cosmos 1898 Rocket 4.1 05:24:11 10° N 05:29:19 57° ENE 05:34:23 10° SSE
BREEZE M DEB (TANK) 4.2 05:20:59 10° WNW 05:32:57 50° NNE 05:36:46 10° E
CZ-4B DEB 4.2 05:27:59 10° N 05:33:30 63° WNW 05:37:41 17° SSW
MOS 1 Rocket 4.3 05:29:43 10° NNW 05:33:35 26° WNW 05:33:35 26° WNW
CZ-4B R/B 3.2 05:28:30 10° N 05:34:05 63° WNW 05:38:17 17° SSW
Tiangong 2 0.9 05:34:35 64° W 05:35:00 84° SSW 05:38:07 10° ESE
GPS 2-04 Rocket1 4.2 05:36:09 21° SSW 05:37:35 26° SSE 05:40:50 10° ESE
Cosmos 2341 Rocket 3.9 05:34:34 10° N 05:40:48 74° W 05:46:58 10° S
Cosmos 1238 Rocket 3.1 05:42:00 30° NW 05:42:00 30° NW 05:44:04 10° NNW
IRS-1C Rocket 4.4 05:37:59 10° N 05:43:00 46° WNW 05:46:22 20° SW
Cosmos 1980 3.9 05:38:16 10° SSW 05:43:53 74° ESE 05:49:31 10° NNE
ERS-2 2.1 05:41:02 10° NNE 05:44:45 85° ESE 05:48:26 10° SSW
IRAS Rocket 4.4 05:41:54 10° N 05:47:17 53° WNW 05:52:15 12° SW
CZ-2C R/B 4.0 05:46:34 10° S 05:50:57 44° W 05:55:18 10° NNW
Okean O Rocket 2.7 05:48:57 10° NNW 05:52:38 26° WNW 05:54:01 22° W
Cosmos 2219 Rocket 2.2 05:48:28 16° SW 05:52:54 58° WNW 05:58:25 10° NNE
Cosmos 1763 Rocket 4.0 05:49:32 10° S 05:54:30 60° ESE 05:59:32 10° NNE
COSMOS 2428 3.5 05:51:56 21° WSW 05:54:48 33° WNW 05:59:55 10° N
COSMO-SKYMED 1 4.3 05:51:16 10° SE 05:55:15 37° ENE 05:59:15 10° N
Cosmos 1025 Rocket 3.0 05:53:20 10° SSW 05:57:41 68° W 06:02:04 10° N
Cosmos 1937 Rocket 3.7 05:53:17 10° NNW 05:58:38 76° ENE 06:03:54 10° SSE
Meteor 2-9 Rocket 4.1 05:53:39 10° NNW 05:59:19 75° W 06:04:47 10° S
NOSS 0 Rocket 3.9 05:54:00 10° SSW 06:00:11 77° WNW 06:06:22 10° NNE
Cosmos 1726 Rocket 4.3 05:55:59 10° N 06:00:24 59° E 06:04:48 10° SSE
Meteor 1-23 Rocket 4.2 05:55:01 10° SSW 06:00:49 76° W 06:06:37 10° N
GENESIS II 4.2 05:57:23 14° SW 06:00:51 79° WNW 06:04:56 10° NNE
Cosmos 1844 Rocket 2.9 05:56:21 10° NW 06:01:36 44° WSW 06:06:50 10° S
Lacrosse 4 Rocket 3.1 06:03:24 16° SW 06:03:24 16° SW 06:05:05 10° SSW
Cosmos 1437 2.7 05:59:23 10° S 06:02:39 86° W 06:05:56 10° N
Okean-O 2.6 06:02:09 10° N 06:06:33 68° WNW 06:10:57 10° SSW
DELTA 2 R/B (1) 3.6 06:02:43 16° W 06:07:12 81° N 06:12:46 10° E
SJ-6F 4.4 06:03:27 10° NNE 06:07:33 88° WNW 06:11:37 10° SSW
Cosmos 1892 Rocket 3.7 06:04:02 10° S 06:08:21 77° E 06:12:43 10° N
Cosmos 841 Rocket 3.9 06:03:18 10° S 06:08:24 66° ESE 06:13:30 10° NNE
USA 116 4.1 06:07:22 10° S 06:11:25 52° W 06:16:03 10° NNW
Cosmos 2360 Rocket 4.1 06:09:51 10° WNW 06:11:53 12° NW 06:13:55 10° NNW
NOAA 6 4.1 06:07:03 10° NNE 06:12:11 83° ESE 06:17:18 10° SSW
Cosmos 2285 Rocket 4.2 06:05:59 10° SW 06:12:17 56° WNW 06:18:37 10° N
EXPRESS MD2 3.5 06:07:20 10° SW 06:12:32 62° SE 06:15:21 10° ENE
ADEOS II 3.2 06:10:16 10° NNW 06:14:29 25° WNW 06:18:41 10° WSW
Cosmos 2278 Rocket 2.2 06:11:38 10° NNW 06:17:20 82° WSW 06:22:59 10° SSE
Cosmos 2298 Rocket 4.1 06:12:45 10° NNW 06:18:00 58° WSW 06:23:11 10° S
Cosmos 1814 Rocket 4.1 06:14:05 10° SSW 06:19:11 55° WNW 06:24:16 10° N
Cosmos 2237 Rocket 2.3 06:15:14 10° SW 06:20:49 60° WNW 06:26:28 10° NNE
Cosmos 1959 Rocket 4.4 06:15:36 10° NNW 06:21:40 69° W 06:27:45 10° S
Cosmos 1441 Rocket 3.4 06:17:49 10° S 06:21:46 80° E 06:25:46 10° NNE
Aureole 2 Rocket 3.1 06:20:54 10° SW 06:24:19 36° WNW 06:27:29 10° N
Cosmos 1515 3.7 06:22:45 10° S 06:26:36 83° W 06:30:28 10° N
Meteor 2-4 Rocket 4.3 06:21:55 10° SW 06:26:58 34° WNW 06:31:56 10° N
Meteor 1-15 Rocket 4.4 06:21:40 10° NNW 06:27:30 60° W 06:33:18 10° S
Cosmos 405 Rocket 3.4 06:24:16 10° SW 06:28:02 37° WNW 06:31:48 10° N
Cosmos 371 Rocket 3.3 06:23:23 10° SSW 06:28:14 85° WNW 06:33:09 10° NNE
Cosmos 1666 4.1 06:26:59 10° NW 06:29:49 20° W 06:32:39 10° SW
USA 215 3.8 06:25:02 10° SSE 06:30:59 36° SW 06:36:57 10° WNW
ATLAS 5 CENTAUR R/B 2.5 06:24:58 10° NW 06:31:03 70° WSW 06:37:35 10° SSE
Okean 2 4.0 06:27:53 10° SSW 06:31:44 36° WNW 06:35:37 10° N
Cosmos 332 Rocket 3.9 06:27:07 10° SSW 06:31:57 59° WNW 06:36:48 10° N
Cosmos 2297 4.4 06:26:47 10° NNW 06:32:30 61° ENE 06:38:08 10° SE
Cosmos 2366 rocket 4.1 06:28:51 10° NNW 06:35:07 62° W 06:41:21 10° S
Cosmos 1346 2.8 06:33:45 10° SSW 06:36:35 76° W 06:39:26 10° N
CZ-3A R/B 2.0 06:36:41 10° NNW 06:37:00 10° NNW 06:37:21 10° N
Cosmos 2333 Rocket 3.1 06:37:36 10° WSW 06:42:34 30° WNW 06:47:36 10° N
